Hourly Data Report for January 10, 2022

TERRACE A
BRITISH COLUMBIA
Current Station Operator: NAVCAN

54°28'07.000" N
128°34'42.000" W
217.30 m
1068134
71951
YXT

Download Data

Hourly Data (January 2022)
Hourly Data Report for January 10, 2022
TIME
LST
Temp Definition
°C
Dew Point Definition
°C
Rel Hum Definition
%
Precip. Amount Definition
mm

Wind Dir Definition
10's deg

Wind Spd Definition
km/h
Visibility Definition
km
Stn Press Definition
kPa
Hmdx Definition


Wind Chill Definition


Weather Definition


00:00 -5.2 -5.7 96 LegendMM 6 5 24.1 98.62   -7 LegendNANA
01:00 -6.8 -7.3 96 LegendMM 9 3 24.1 98.56   -8 Mostly Cloudy
02:00 -5.8 -6.6 94 LegendMM 36 1 24.1 98.47   -6 LegendNANA
03:00 -5.4 -5.8 97 LegendMM 34 4 24.1 98.43   -7 LegendNANA
04:00 -5.9 -6.6 94 LegendMM 24 6 24.1 98.38   -9 Mostly Cloudy
05:00 -5.6 -6.2 96 LegendMM 34 3 24.1 98.38   -7 LegendNANA
06:00 -5.5 -6.2 95 LegendMM 18 7 24.1 98.38   -9 Freezing Rain
07:00 -3.9 -4.6 95 LegendMM 11 5 16.1 98.36   -6 Freezing Rain
08:00 -2.7 -3.2 96 LegendMM 36 1 16.1 98.29   -3 Freezing Rain
09:00 -3.5 -4.0 96 LegendMM 15 7 16.1 98.35   -6 Freezing Rain
10:00 -2.4 -2.9 96 LegendMM 36 1 16.1 98.36   -3 Freezing Rain
11:00 -1.9 -2.4 96 LegendMM 7 4 16.1 98.36   -3 Freezing Rain
12:00 -1.3 -1.7 97 LegendMM 12 5 16.1 98.28   -3 Freezing Rain
13:00 -1.1 -1.7 96 LegendMM 2 19 12.9 98.25   -6 Freezing Rain
14:00 -0.6 -0.8 99 LegendMM 7 8 11.3 98.27   -3 Freezing Rain
15:00 -0.1 -0.2 99 LegendMM 34 4 11.3 98.27   -1 Freezing Rain
16:00 0.2 0.1 99 LegendMM 36 4 12.9 98.28     Rain
17:00 1.6 1.5 100 LegendMM 14 16 11.3 98.30     Rain
18:00 2.7 2.7 99 LegendMM 15 18 LegendMM 98.29     Rain
19:00 3.5 2.9 96 LegendMM 16 23 12.9 98.25     Rain
20:00 1.1 0.8 98 LegendMM 4 7 24.1 98.24     Rain
21:00 2.2 1.7 96 LegendMM 23 5 24.1 98.14     Rain
22:00 0.5 0.3 99 LegendMM 36 18 24.1 97.94     Cloudy
23:00 0.3 0.2 99 LegendMM 1 16 24.1 97.85     Rain Showers

Notes on Data Quality.

Legend

  • E = Estimated
  • M = Missing
  • NA = Not Available*
  • [empty] = Indicates an unobserved value
Date modified: